Wind_Speed
7 7 8 11 14 16 17 18 18 18 19 19 18 17 17 16 16 14 15 15 16 17 17 18 20 18 19 20 17 16 13 13 12 9 13 21 19 21 21 23 22 23 23
8 8 10 12 15 16 16 17 18 18 19 19 19 19 19 19 18 18 18 18 18 19 20 20 20 22 20 21 20 20 18 17 16 15 15 16 22 24 22 24 27 27 28
10 10 11 13 15 15 16 16 17 17 17 18 19 20 20 21 21 20 20 21 21 20 19 20 20 21 23 22 21 21 21 21 19 19 19 20 22 24 25 25 27 30 32
11 12 11 12 14 14 15 16 17 17 17 18 20 22 22 22 21 22 23 22 23 22 22 21 20 19 20 22 24 22 22 22 22 21 21 21 23 25 26 26 25 29 30
12 12 12 13 14 14 15 18 19 20 21 23 26 27 26 24 22 20 20 20 20 21 21 22 22 22 21 20 20 23 24 24 23 22 21 21 22 23 27 26 24 25 26
13 13 13 13 14 16 17 18 24 24 26 27 28 26 24 22 21 20 19 18 18 17 18 18 18 19 20 20 19 19 22 25 25 25 25 24 24 23 26 26 25 26 24
15 16 16 16 18 20 20 21 29 31 29 29 27 25 21 21 20 18 17 17 16 16 17 17 18 17 17 18 20 19 18 19 24 27 27 28 29 28 28 29 27 29 27
16 18 19 19 22 24 26 29 37 38 32 30 27 24 21 20 19 19 19 21 21 22 22 24 24 25 26 26 26 24 24 23 22 22 25 27 30 32 33 33 33 33 32
18 21 23 25 28 31 33 36 41 39 34 33 31 27 26 25 25 26 27 28 30 31 31 32 33 33 33 33 34 34 34 34 32 29 28 28 27 29 30 32 33 36 38
21 24 26 28 31 34 38 43 43 43 42 36 31 29 29 30 31 32 33 33 34 35 36 37 37 37 37 37 37 37 37 39 39 39 37 34 32 32 32 31 30 32 34
23 26 31 35 38 44 46 48 47 44 39 37 33 33 32 32 33 35 36 37 38 40 41 41 40 39 40 40 41 40 40 40 41 42 42 41 40 37 35 35 34 32 32
27 33 39 43 49 46 36 33 36 35 34 34 35 36 35 35 37 39 40 40 40 40 41 42 43 44 45 46 47 47 45 45 44 43 45 45 44 44 41 40 38 37 35
41 40 39 32 28 35 34 33 35 35 36 38 39 38 36 38 41 43 44 43 42 44 46 46 46 48 46 47 51 53 50 47 46 45 47 48 46 47 44 43 42 40 39
25 28 32 29 26 28 31 33 35 37 40 41 41 38 39 42 45 47 47 47 46 46 45 46 45 46 49 48 46 49 50 49 47 44 43 45 47 46 45 45 45 43 43
34 36 33 28 28 31 34 37 40 40 43 46 47 48 47 47 48 51 51 52 54 53 51 51 49 45 46 44 42 43 45 46 46 43 42 41 42 44 45 45 45 44 44
35 34 32 33 34 36 38 39 43 43 46 49 52 53 56 58 56 59 56 50 47 47 46 44 41 38 37 39 38 39 41 42 43 43 39 39 38 40 42 43 44 44 44
37 35 37 40 40 42 46 44 44 52 56 60 59 59 58 59 51 47 46 45 43 40 37 32 30 31 30 30 32 34 37 38 39 39 38 37 36 35 37 39 41 44 45
39 44 53 56 56 58 58 57 58 57 55 59 58 56 54 50 43 41 38 34 32 30 28 26 25 26 25 26 28 33 36 37 36 36 36 36 35 32 33 34 39 41 44
57 59 58 56 54 50 45 43 45 43 42 46 49 47 42 41 39 36 33 30 30 30 30 31 31 31 30 29 29 31 33 36 37 36 36 35 34 31 31 33 36 38 41
47 44 43 42 41 38 36 38 41 38 40 42 39 36 36 35 35 33 33 31 31 32 33 35 36 38 38 37 36 36 37 36 36 37 37 35 34 33 32 35 36 38 38
40 37 35 34 34 33 33 35 35 34 35 31 30 32 33 35 35 35 34 34 35 35 36 38 39 40 40 41 40 40 40 40 40 39 37 37 35 33 32 34 37 38 37
36 34 35 36 35 36 35 35 34 33 32 36 38 37 34 36 36 37 36 36 37 38 40 41 42 43 44 42 40 39 40 42 43 42 40 38 37 35 33 35 35 36 37
38 39 43 45 45 44 43 44 42 41 41 41 42 42 42 42 42 41 41 42 42 42 41 40 39 41 39 37 35 35 36 39 42 43 42 41 38 37 34 35 36 34 36
44 45 46 49 50 50 49 47 46 47 48 51 52 51 49 47 46 45 44 45 46 46 45 42 40 39 38 38 35 36 38 39 42 43 42 41 39 37 36 34 35 33 34
49 52 54 54 51 48 47 46 46 44 45 47 49 49 48 47 45 44 42 42 43 43 44 44 42 42 41 37 37 37 39 42 42 43 44 42 39 36 37 33 34 34 31
57 56 54 51 50 48 47 43 40 41 42 44 46 47 47 45 43 42 42 42 43 44 43 44 44 42 40 39 40 41 41 43 41 43 43 41 39 36 36 36 31 31 31
Wind_Direction
249 278 293 308 322 325 321 322 322 324 323 322 323 322 319 316 320 323 321 315 309 306 308 310 311 311 309 309 311 305 307 295 285 268 249 255 258 265 262 265 264 267 265
255 277 297 315 324 324 324 325 324 325 323 322 319 314 311 311 310 309 307 305 303 304 304 303 303 304 304 303 303 299 296 291 291 286 273 257 264 260 269 268 271 268 264
262 283 295 312 320 318 321 326 325 322 323 325 324 322 317 311 308 307 303 300 300 300 300 300 300 300 300 299 295 291 290 289 286 283 280 278 273 274 268 268 269 270 270
267 279 288 307 310 316 318 323 321 315 316 319 319 318 316 313 310 305 301 298 298 297 296 296 297 298 297 298 300 295 287 286 287 283 280 275 274 276 271 265 265 265 267
266 272 285 302 305 309 316 326 325 316 311 311 312 310 306 304 303 303 302 302 301 301 303 300 298 296 295 296 295 294 294 290 284 283 280 272 271 270 270 270 265 262 263
268 272 278 298 300 301 310 319 325 317 312 316 314 307 302 298 298 298 299 302 305 305 307 310 309 307 305 301 299 296 293 290 286 282 280 277 271 268 271 268 268 268 264
269 274 279 292 301 302 305 315 324 321 315 320 323 310 301 295 294 294 295 297 299 303 306 305 307 309 308 307 309 308 303 295 289 286 282 280 279 274 270 269 266 265 265
273 278 280 288 296 298 303 312 317 316 315 319 323 306 296 289 287 286 288 289 288 289 292 296 299 301 305 304 301 301 303 303 300 292 287 284 281 280 279 277 273 270 266
286 284 281 287 293 295 298 304 310 309 310 312 310 304 289 286 286 288 290 291 291 292 293 294 294 295 293 295 293 294 294 294 296 296 294 289 285 283 280 279 279 276 274
279 282 287 290 293 295 297 302 305 306 306 300 293 288 283 282 284 287 289 291 293 293 293 294 294 292 292 291 292 291 289 288 287 288 287 288 288 285 283 281 280 278 278
287 289 293 290 288 293 296 299 301 300 298 296 284 283 285 286 287 288 289 291 292 294 295 296 294 292 291 293 290 288 288 287 285 282 280 279 280 280 282 281 279 277 279
287 288 291 289 294 295 298 301 298 294 291 288 283 283 285 288 290 291 292 293 295 297 298 298 298 294 293 293 292 291 286 284 281 279 276 276 271 272 274 276 276 275 274
290 292 292 293 295 296 298 297 292 289 287 284 284 284 286 288 291 292 292 292 295 296 294 293 293 292 294 290 288 288 289 283 278 275 271 269 270 268 269 271 272 271 272
294 296 295 294 293 298 302 300 295 291 288 286 284 283 286 287 289 290 291 290 293 295 295 295 298 296 297 298 292 282 279 280 279 275 272 268 266 266 266 267 268 270 269
305 304 299 291 291 293 294 295 291 290 286 286 286 286 285 285 289 291 290 290 293 295 294 293 294 294 294 291 287 282 279 277 278 277 275 270 266 264 263 263 265 267 268
302 299 292 290 287 281 286 284 286 287 290 287 288 289 291 291 292 298 297 295 290 289 288 290 291 291 288 286 284 283 282 280 280 281 278 275 270 265 262 260 260 261 263
297 295 294 295 290 290 295 296 286 291 292 291 293 294 296 297 297 293 289 289 290 291 291 288 287 287 288 285 284 284 284 285 285 285 284 281 276 271 265 261 259 257 258
295 296 299 298 296 294 295 295 293 294 292 291 293 295 295 294 293 291 292 292 289 288 288 288 289 291 294 293 290 286 284 285 285 285 286 284 283 277 272 267 261 257 254
299 299 300 300 298 297 297 295 292 292 287 286 293 294 293 292 292 291 290 287 286 285 287 290 292 292 292 292 294 294 293 290 285 283 282 283 281 281 274 268 265 263 259
303 304 302 301 301 302 298 294 293 293 283 292 290 289 289 290 290 290 290 291 290 291 291 291 291 291 291 291 290 291 291 291 291 285 280 281 283 277 274 269 265 262 261
312 312 313 313 312 312 306 298 296 292 294 290 292 292 291 292 291 291 291 292 293 295 297 298 299 300 298 292 286 284 283 285 285 286 285 278 278 277 272 270 269 266 263
310 310 312 313 312 312 311 309 308 303 296 296 288 283 287 294 291 289 289 288 291 294 299 303 304 304 302 294 287 282 279 279 281 280 280 280 274 273 268 268 272 271 265
309 309 311 311 309 308 306 300 298 296 294 292 291 293 295 293 295 295 294 293 292 293 296 298 301 301 297 292 287 284 284 282 282 278 274 275 274 269 269 267 270 271 265
305 307 309 308 306 304 302 300 297 295 296 295 296 296 295 294 293 293 292 291 292 293 294 293 294 291 289 290 291 287 287 289 288 285 276 267 270 267 267 270 270 269 263
304 305 305 305 303 304 303 299 296 296 296 293 293 293 295 295 294 293 293 293 291 288 284 282 283 284 284 288 288 288 291 290 285 283 279 267 265 263 260 267 272 271 263
305 306 306 303 301 301 302 302 301 299 298 298 296 293 291 292 291 292 293 292 291 289 284 279 278 280 280 283 286 285 288 291 284 279 278 268 262 261 257 261 272 272 268
Height
3121 3121 3120 3120 3119 3118 3116 3114 3111 3109 3107 3105 3103 3101 3100 3098 3096 3094 3092 3090 3089 3088 3086 3084 3083 3081 3079 3077 3076 3077 3079 3082 3083 3083 3083 3085 3089 3091 3091 3091 3090 3090 3091
3118 3118 3118 3117 3116 3114 3113 3112 3109 3107 3105 3103 3101 3099 3097 3095 3093 3091 3089 3088 3086 3085 3084 3082 3079 3077 3076 3074 3074 3074 3075 3077 3076 3079 3082 3085 3084 3082 3084 3084 3084 3084 3085
3116 3115 3115 3114 3113 3112 3110 3109 3107 3105 3103 3101 3099 3097 3095 3092 3090 3088 3087 3085 3082 3081 3079 3078 3078 3076 3073 3071 3070 3069 3068 3068 3070 3070 3072 3071 3072 3075 3074 3075 3076 3077 3077
3113 3113 3113 3112 3111 3109 3108 3106 3104 3102 3100 3098 3096 3094 3091 3089 3087 3085 3083 3081 3079 3077 3075 3074 3072 3072 3071 3069 3066 3064 3065 3063 3062 3062 3062 3062 3063 3064 3068 3069 3069 3069 3069
3110 3110 3110 3108 3107 3106 3105 3104 3102 3099 3097 3094 3092 3090 3087 3085 3082 3081 3079 3077 3075 3073 3072 3070 3068 3066 3065 3064 3063 3062 3060 3058 3058 3056 3057 3058 3059 3060 3058 3059 3061 3061 3061
3107 3106 3106 3105 3104 3103 3102 3100 3099 3096 3093 3090 3088 3085 3083 3081 3079 3077 3075 3073 3071 3070 3068 3066 3064 3062 3061 3060 3059 3058 3056 3056 3055 3055 3054 3053 3054 3056 3054 3053 3053 3052 3054
3103 3103 3102 3102 3100 3099 3098 3096 3093 3091 3088 3086 3083 3080 3079 3077 3076 3074 3072 3070 3068 3067 3065 3063 3061 3059 3057 3055 3054 3054 3053 3051 3050 3049 3050 3049 3048 3048 3047 3046 3046 3044 3046
3101 3100 3099 3097 3096 3095 3093 3090 3087 3085 3082 3080 3078 3076 3075 3073 3071 3069 3067 3066 3064 3062 3060 3058 3057 3055 3053 3052 3049 3048 3046 3045 3044 3043 3042 3041 3042 3040 3039 3038 3038 3036 3037
3097 3096 3094 3093 3091 3089 3087 3084 3082 3079 3076 3074 3072 3070 3069 3068 3066 3064 3062 3060 3058 3056 3054 3052 3050 3048 3046 3044 3042 3041 3040 3037 3037 3036 3035 3034 3033 3032 3031 3029 3028 3027 3027
3091 3091 3090 3088 3085 3082 3080 3077 3075 3072 3070 3067 3065 3063 3061 3059 3058 3056 3054 3053 3050 3048 3046 3044 3041 3039 3038 3036 3034 3032 3031 3029 3029 3027 3026 3025 3024 3023 3022 3022 3021 3019 3019
3087 3086 3083 3080 3077 3075 3072 3069 3066 3063 3060 3058 3057 3056 3054 3052 3050 3048 3046 3044 3042 3040 3037 3035 3033 3031 3028 3026 3023 3022 3021 3019 3018 3017 3016 3015 3015 3015 3015 3014 3013 3013 3011
3082 3080 3077 3073 3068 3065 3062 3060 3058 3055 3052 3051 3049 3048 3046 3044 3042 3039 3037 3035 3032 3030 3027 3025 3022 3020 3018 3015 3013 3010 3008 3007 3007 3005 3004 3004 3004 3003 3004 3004 3004 3004 3003
3073 3071 3068 3064 3062 3059 3056 3053 3050 3048 3045 3042 3040 3039 3037 3034 3032 3030 3027 3024 3021 3019 3017 3014 3011 3009 3006 3003 3001 2997 2995 2993 2992 2992 2991 2991 2991 2990 2992 2992 2992 2992 2992
3065 3064 3061 3057 3054 3051 3048 3046 3043 3040 3037 3034 3032 3029 3027 3024 3022 3019 3016 3013 3010 3007 3005 3002 2998 2996 2993 2990 2987 2984 2981 2979 2978 2977 2977 2977 2977 2978 2979 2979 2979 2980 2979
3057 3054 3052 3049 3047 3044 3041 3037 3034 3032 3028 3024 3023 3019 3015 3011 3009 3007 3004 3001 2998 2995 2992 2988 2985 2982 2979 2976 2973 2970 2968 2965 2964 2963 2964 2964 2964 2965 2965 2966 2967 2968 2967
3050 3048 3044 3042 3040 3035 3032 3029 3024 3022 3018 3013 3011 3008 3004 3000 2996 2994 2990 2987 2985 2981 2978 2975 2971 2968 2967 2965 2961 2957 2955 2953 2952 2951 2951 2951 2951 2951 2952 2953 2954 2956 2955
3043 3040 3037 3034 3031 3027 3024 3020 3014 3010 3005 3000 2998 2994 2989 2986 2982 2979 2976 2973 2970 2967 2965 2962 2960 2957 2956 2954 2951 2948 2944 2942 2941 2940 2939 2939 2939 2939 2939 2940 2941 2942 2943
3035 3032 3027 3021 3018 3014 3010 3005 3001 2996 2991 2986 2982 2979 2975 2971 2969 2967 2964 2961 2958 2956 2954 2953 2951 2948 2947 2945 2941 2938 2935 2933 2932 2930 2929 2927 2928 2928 2928 2927 2927 2928 2930
3024 3019 3014 3008 3002 2998 2995 2991 2986 2982 2979 2975 2972 2968 2964 2961 2959 2956 2954 2951 2949 2947 2946 2944 2942 2940 2938 2936 2933 2929 2926 2923 2922 2920 2919 2918 2917 2918 2918 2916 2915 2916 2917
3012 3007 3002 2996 2991 2988 2983 2978 2974 2971 2967 2964 2960 2958 2956 2952 2950 2947 2944 2942 2940 2937 2935 2934 2932 2929 2926 2926 2923 2920 2916 2914 2911 2910 2909 2908 2907 2907 2906 2904 2903 2903 2906
3000 2996 2991 2986 2982 2978 2974 2968 2964 2960 2958 2954 2952 2950 2947 2944 2940 2937 2935 2932 2930 2926 2924 2921 2919 2916 2914 2912 2911 2908 2905 2903 2901 2899 2898 2897 2896 2896 2896 2894 2892 2892 2895
2993 2989 2984 2981 2976 2972 2967 2961 2957 2954 2950 2946 2942 2939 2936 2934 2930 2927 2925 2922 2918 2915 2912 2909 2905 2903 2901 2899 2897 2896 2893 2891 2887 2887 2887 2885 2884 2884 2884 2883 2883 2882 2883
2984 2981 2977 2971 2967 2963 2958 2952 2948 2944 2940 2936 2933 2929 2926 2923 2920 2915 2912 2909 2907 2903 2900 2897 2893 2891 2889 2887 2886 2883 2881 2878 2874 2874 2874 2873 2872 2872 2872 2872 2872 2871 2871
2975 2972 2967 2961 2956 2952 2947 2942 2938 2933 2929 2923 2919 2916 2912 2910 2907 2904 2900 2897 2894 2891 2887 2884 2881 2879 2877 2876 2876 2873 2869 2866 2863 2860 2858 2860 2861 2861 2861 2861 2861 2860 2860
2966 2961 2955 2949 2943 2939 2934 2930 2925 2921 2916 2910 2906 2902 2899 2895 2892 2890 2887 2884 2881 2878 2874 2871 2869 2866 2864 2865 2863 2861 2857 2853 2851 2847 2845 2845 2848 2849 2849 2850 2850 2849 2850
2953 2947 2941 2935 2930 2926 2921 2917 2913 2909 2903 2897 2893 2890 2886 2883 2880 2876 2872 2871 2867 2864 2861 2858 2855 2853 2851 2851 2850 2848 2845 2840 2837 2834 2832 2832 2834 2836 2837 2838 2839 2839 2839